• In Germany
  • List of Countries
  • For 7 days
  • Water Temperature
  • Satellite Maps
  • Weather Map
  • Weather Widgets
  • user-avatar
    Login

    Hourly Weather Nayarit

    Today, 17 October, Wednesday

    Time Temperature Precipitation Wind Pressure Humidity
    00:00 +26°C° 1.3 mm 1 mps 739 mmHg 92%
    01:00 +26°C° 1.3 mm 1 mps 739 mmHg 92%
    02:00 +26°C° 1.3 mm 1 mps 739 mmHg 92%
    03:00 +25°C° 0.8 mm 1 mps 739 mmHg 92%
    04:00 +25°C° 0.8 mm 1 mps 739 mmHg 92%
    05:00 +25°C° 0.8 mm 1 mps 739 mmHg 93%
    06:00 +26°C° 0.1 mm 1 mps 739 mmHg 90%
    07:00 +27°C° 0.1 mm 1 mps 740 mmHg 88%
    08:00 +27°C° 0.1 mm 1 mps 740 mmHg 86%
    09:00 +30°C° 0.6 mm 1 mps 740 mmHg 76%
    10:00 +33°C° 0.6 mm 1 mps 740 mmHg 66%
    11:00 +35°C° 0.6 mm 1 mps 740 mmHg 57%
    12:00 +34°C° 0.3 mm 1 mps 739 mmHg 60%
    13:00 +34°C° 0.3 mm 1 mps 739 mmHg 63%
    14:00 +34°C° 0.3 mm 2 mps 738 mmHg 65%
    15:00 +31°C° 0.3 mm 1 mps 738 mmHg 72%
    16:00 +30°C° 0.3 mm 1 mps 738 mmHg 78%
    17:00 +29°C° 0.3 mm 1 mps 738 mmHg 84%
    18:00 +28°C° 0.1 mm 1 mps 739 mmHg 87%
    19:00 +25°C° 0.1 mm 0 mps 739 mmHg 90%
    20:00 +24°C° 0.1 mm 0 mps 740 mmHg 93%
    21:00 +24°C° 0.1 mm 0 mps 740 mmHg 92%
    22:00 +24°C° 0.1 mm 0 mps 740 mmHg 91%
    23:00 +24°C° 0.1 mm 0 mps 741 mmHg 90%

    Tomorrow, 18 October, Thursday

    Time Temperature Precipitation Wind Pressure Humidity
    00:00 +26°C° 0.1 mm 1 mps 740 mmHg 89%
    01:00 +26°C° 0.1 mm 1 mps 740 mmHg 88%
    02:00 +26°C° 0.1 mm 1 mps 740 mmHg 87%
    03:00 +26°C° 0.1 mm 1 mps 740 mmHg 86%
    04:00 +26°C° 0.1 mm 1 mps 740 mmHg 85%
    05:00 +25°C° 0.1 mm 1 mps 740 mmHg 84%
    06:00 +27°C° 0 mm 1 mps 740 mmHg 78%
    07:00 +28°C° 0 mm 1 mps 741 mmHg 73%
    08:00 +29°C° 0 mm 1 mps 741 mmHg 67%
    09:00 +32°C° 0 mm 1 mps 741 mmHg 56%
    10:00 +35°C° 0 mm 1 mps 741 mmHg 45%
    11:00 +39°C° 0 mm 1 mps 741 mmHg 34%
    12:00 +40°C° 0 mm 1 mps 740 mmHg 33%
    13:00 +40°C° 0 mm 1 mps 739 mmHg 32%
    14:00 +41°C° 0 mm 2 mps 738 mmHg 31%
    15:00 +38°C° 0.4 mm 2 mps 738 mmHg 43%
    16:00 +34°C° 0.4 mm 1 mps 738 mmHg 54%
    17:00 +32°C° 0.4 mm 1 mps 738 mmHg 65%
    18:00 +30°C° 0.2 mm 1 mps 739 mmHg 72%
    19:00 +29°C° 0.2 mm 1 mps 739 mmHg 78%
    20:00 +26°C° 0.2 mm 0 mps 740 mmHg 84%
    21:00 +26°C° 0.1 mm 0 mps 740 mmHg 83%
    22:00 +27°C° 0.1 mm 1 mps 740 mmHg 82%
    23:00 +27°C° 0.1 mm 1 mps 741 mmHg 81%

    Day after tomorrow, 19 October, Friday

    Time Temperature Precipitation Wind Pressure Humidity
    00:00 +27°C° 0.2 mm 1 mps 740 mmHg 80%
    01:00 +27°C° 0.2 mm 1 mps 740 mmHg 80%
    02:00 +26°C° 0.2 mm 1 mps 740 mmHg 79%
    03:00 +26°C° 0.6 mm 1 mps 740 mmHg 78%
    04:00 +26°C° 0.6 mm 1 mps 739 mmHg 77%
    05:00 +25°C° 0.6 mm 1 mps 739 mmHg 76%
    06:00 +27°C° 0 mm 1 mps 740 mmHg 72%
    07:00 +28°C° 0 mm 1 mps 740 mmHg 67%
    08:00 +29°C° 0 mm 1 mps 741 mmHg 62%
    09:00 +32°C° 0 mm 1 mps 741 mmHg 53%
    10:00 +35°C° 0 mm 1 mps 740 mmHg 44%
    11:00 +39°C° 0 mm 1 mps 740 mmHg 34%
    12:00 +39°C° 0 mm 1 mps 739 mmHg 34%
    13:00 +40°C° 0 mm 1 mps 738 mmHg 34%
    14:00 +40°C° 0 mm 1 mps 738 mmHg 34%
    15:00 +37°C° 0 mm 1 mps 738 mmHg 42%
    16:00 +35°C° 0 mm 1 mps 737 mmHg 50%
    17:00 +33°C° 0 mm 1 mps 737 mmHg 58%
    18:00 +31°C° 0.9 mm 1 mps 738 mmHg 66%
    19:00 +29°C° 0.9 mm 1 mps 739 mmHg 74%
    20:00 +25°C° 0.9 mm 0 mps 739 mmHg 82%
    21:00 +25°C° 0 mm 0 mps 739 mmHg 81%
    22:00 +27°C° 0 mm 1 mps 740 mmHg 81%
    23:00 +27°C° 0 mm 1 mps 740 mmHg 80%

    20 October, Saturday

    Time Temperature Precipitation Wind Pressure Humidity
    00:00 +27°C° 0 mm 1 mps 740 mmHg 79%
    01:00 +27°C° 0 mm 1 mps 739 mmHg 78%
    02:00 +27°C° 0 mm 1 mps 739 mmHg 77%
    03:00 +27°C° 0 mm 1 mps 739 mmHg 76%
    04:00 +26°C° 0 mm 1 mps 739 mmHg 76%
    05:00 +26°C° 0 mm 1 mps 739 mmHg 75%
    06:00 +27°C° 0.2 mm 1 mps 740 mmHg 72%
    07:00 +28°C° 0.2 mm 1 mps 741 mmHg 69%
    08:00 +29°C° 0.2 mm 1 mps 741 mmHg 66%
    09:00 +32°C° 0 mm 1 mps 741 mmHg 57%
    10:00 +34°C° 0 mm 1 mps 741 mmHg 48%
    11:00 +35°C° 0 mm 0 mps 741 mmHg 40%
    12:00 +37°C° 0 mm 1 mps 740 mmHg 41%
    13:00 +36°C° 0 mm 1 mps 739 mmHg 42%
    14:00 +37°C° 0 mm 2 mps 738 mmHg 44%
    15:00 +34°C° 0 mm 1 mps 738 mmHg 51%
    16:00 +33°C° 0 mm 1 mps 738 mmHg 57%
    17:00 +31°C° 0 mm 1 mps 738 mmHg 64%
    18:00 +30°C° 0 mm 1 mps 739 mmHg 69%
    19:00 +27°C° 0 mm 0 mps 740 mmHg 74%
    20:00 +26°C° 0 mm 0 mps 740 mmHg 79%
    21:00 +26°C° 0.5 mm 0 mps 740 mmHg 79%
    22:00 +27°C° 0.5 mm 1 mps 740 mmHg 78%
    23:00 +27°C° 0.5 mm 1 mps 741 mmHg 78%

    21 October, Sunday

    Time Temperature Precipitation Wind Pressure Humidity
    00:00 +27°C° 0.5 mm 1 mps 740 mmHg 77%
    01:00 +27°C° 0.5 mm 1 mps 740 mmHg 75%
    02:00 +27°C° 0.5 mm 1 mps 740 mmHg 74%
    03:00 +26°C° 0 mm 1 mps 740 mmHg 74%
    04:00 +26°C° 0 mm 1 mps 740 mmHg 73%
    05:00 +26°C° 0 mm 1 mps 740 mmHg 72%
    06:00 +27°C° 0 mm 1 mps 740 mmHg 69%
    07:00 +29°C° 0 mm 1 mps 741 mmHg 65%
    08:00 +30°C° 0 mm 1 mps 741 mmHg 62%
    09:00 +33°C° 0 mm 1 mps 741 mmHg 52%
    10:00 +36°C° 0 mm 1 mps 740 mmHg 43%
    11:00 +40°C° 0 mm 1 mps 740 mmHg 33%
    12:00 +40°C° 0 mm 1 mps 739 mmHg 33%
    13:00 +40°C° 0 mm 1 mps 738 mmHg 34%
    14:00 +40°C° 0 mm 1 mps 737 mmHg 34%
    15:00 +37°C° 1.4 mm 1 mps 738 mmHg 44%
    16:00 +35°C° 1.4 mm 2 mps 738 mmHg 54%
    17:00 +32°C° 1.4 mm 2 mps 738 mmHg 64%
    18:00 +30°C° 3.6 mm 1 mps 739 mmHg 72%
    19:00 +29°C° 3.6 mm 1 mps 740 mmHg 80%
    20:00 +25°C° 3.6 mm 0 mps 740 mmHg 89%
    21:00 +27°C° 2.8 mm 1 mps 740 mmHg 89%
    22:00 +27°C° 2.8 mm 1 mps 740 mmHg 88%
    23:00 +26°C° 2.8 mm 1 mps 740 mmHg 88%

    22 October, Monday

    Time Temperature Precipitation Wind Pressure Humidity
    00:00 +26°C° 2 mm 1 mps 740 mmHg 87%
    01:00 +26°C° 2 mm 1 mps 740 mmHg 87%
    02:00 +26°C° 2 mm 1 mps 740 mmHg 86%
    03:00 +25°C° 0.3 mm 1 mps 740 mmHg 85%
    04:00 +25°C° 0.3 mm 1 mps 740 mmHg 84%
    05:00 +25°C° 0.3 mm 1 mps 740 mmHg 83%
    06:00 +27°C° 0 mm 1 mps 740 mmHg 77%
    07:00 +28°C° 0 mm 1 mps 741 mmHg 71%
    08:00 +30°C° 0 mm 1 mps 741 mmHg 66%
    09:00 +33°C° 0 mm 1 mps 741 mmHg 56%
    10:00 +35°C° 0 mm 1 mps 741 mmHg 47%
    11:00 +39°C° 0 mm 1 mps 741 mmHg 38%
    12:00 +37°C° 0.5 mm 1 mps 740 mmHg 43%
    13:00 +38°C° 0.5 mm 2 mps 739 mmHg 47%
    14:00 +37°C° 0.5 mm 2 mps 738 mmHg 52%
    15:00 +35°C° 0.5 mm 2 mps 738 mmHg 59%
    16:00 +34°C° 0.5 mm 2 mps 738 mmHg 65%
    17:00 +31°C° 0.5 mm 2 mps 739 mmHg 72%
    18:00 +29°C° 2.3 mm 1 mps 739 mmHg 79%
    19:00 +28°C° 2.3 mm 1 mps 740 mmHg 86%
    20:00 +24°C° 2.3 mm 0 mps 740 mmHg 94%
    21:00 +24°C° 0.8 mm 0 mps 741 mmHg 94%
    22:00 +24°C° 0.8 mm 0 mps 741 mmHg 95%
    23:00 +24°C° 0.8 mm 0 mps 741 mmHg 95%
    Show more